Regional Weather Roundup
Issued by NWS

Home | Current Version | Previous Version | Graphics & Text | Print | Product List | Glossary On
Versions: 1 2 3 4 5 6 7 8 9 10 11 12 13 14 15 16 17 18 19 20 21 22 23 24 25 26 27 28 29 30 31 32 33 34 35 36 37 38 39 40 41 42 43 44 45 46 47 48 49 50
000
ASUS45 KPSR 011210
RWRAZ

ARIZONA REGIONAL HOURLY WEATHER ROUNDUP
NATIONAL WEATHER SERVICE PHOENIX AZ
500 AM MST SUN MAR 01 2015

NOTE: FAIR INDICATES FEW OR NO CLOUDS BELOW 12,000 FEET WITH NO
SIGNIFICANT WEATHER AND/OR OBSTRUCTIONS TO VISIBILITY.

AZZ001>003-036-011300-
NORTHWEST ARIZONA

CITY           SKY/WX    TMP DP  RH WIND       PRES   REMARKS
BULLHEAD CITY  CLOUDY    57  37  47 CALM      29.90R
KINGMAN        CLOUDY    50  35  56 S13       29.90R
6HR MIN TEMP:  47; 6HR MAX TEMP:  51;

$$

AZZ004>008-015-016-018-011300-
NORTH CENTRAL ARIZONA

CITY           SKY/WX    TMP DP  RH WIND       PRES   REMARKS
GRAND CANYON   MIX PCPN  35  31  85 S5        29.96R WCI  31
6HR MIN TEMP:  32; 6HR MAX TEMP:  35; 6HR PCP: TRACE;

PRESCOTT       CLOUDY    41  38  89 NE10      29.95R
6HR MIN TEMP:  41; 6HR MAX TEMP:  46; 6HR PCP:  0.24;

FLAGSTAFF      SNOW      33  31  92 VRB6      29.96R VSB 1/2 WCI  28
6HR MIN TEMP:  33; 6HR MAX TEMP:  36; 6HR PCP:  0.68;

PAYSON         CLOUDY    45  43  93 VRB5G13   30.01R
PAGE           CLOUDY    39  33  79 NW3       29.98R
6HR MIN TEMP:  36; 6HR MAX TEMP:  40;

$$

AZZ009>014-017-011300-
NORTHEAST ARIZONA

CITY           SKY/WX    TMP DP  RH WIND       PRES   REMARKS
WINSLOW        CLOUDY    40  36  86 CALM      29.96R
6HR MIN TEMP:  40; 6HR MAX TEMP:  43;

SAINT JOHNS    CLOUDY    44  39  82 NW3       29.98R
6HR MIN TEMP:  42; 6HR MAX TEMP:  46; 6HR PCP:  0.01;

WINDOW ROCK    CLOUDY    37  34  89 CALM      30.01R
6HR MIN TEMP:  34; 6HR MAX TEMP:  37; 6HR PCP:  0.01;

SHOW LOW       LGT RAIN  39  37  93 SW18G29   30.00R WCI  30
$$

AZZ023-011300-
GREATER PHOENIX AREA

CITY           SKY/WX    TMP DP  RH WIND       PRES   REMARKS
PHOENIX        CLOUDY    61  47  59 SE6       29.91R
6HR MIN TEMP:  61; 6HR MAX TEMP:  64;

BUCKEYE        CLOUDY    59  50  72 NE3       29.93R
DEER VALLEY    CLOUDY    59  47  64 SE8       29.92R
6HR MIN TEMP:  58; 6HR MAX TEMP:  60;

SCOTTSDALE     CLOUDY    59  47  64 SE3       29.94R
6HR MIN TEMP:  59; 6HR MAX TEMP:  61;

MESA-GATEWAY   CLOUDY    59  46  63 E7        29.96R
$$

AZZ027-028-011300-
SOUTHWEST MARICOPA COUNTY AND PINAL COUNTY

CITY           SKY/WX    TMP DP  RH WIND       PRES   REMARKS
CASA GRANDE    CLOUDY    57  45  62 SE5       29.94S
6HR MIN TEMP:  57; 6HR MAX TEMP:  63;

$$

AZZ503-504-507>509-011300-
SOUTHEAST ARIZONA

CITY           SKY/WX    TMP DP  RH WIND       PRES   REMARKS
TUCSON         PTCLDY    55  44  66 CALM      29.98S
6HR MIN TEMP:  55; 6HR MAX TEMP:  59;

DAVIS-MONTHAN  PTCLDY    55  44  64 SE12      29.96S
6HR MIN TEMP:  51; 6HR MAX TEMP:  56;

NOGALES        CLEAR     53  30  41 SE8       30.00S
6HR MIN TEMP:  50; 6HR MAX TEMP:  57;

SIERRA VISTA   CLEAR     48  36  63 S9        30.03R
6HR MIN TEMP:  46; 6HR MAX TEMP:  56;

DOUGLAS        CLEAR     45  36  70 SE5       30.04S
6HR MIN TEMP:  44; 6HR MAX TEMP:  55;

SAFFORD        PTCLDY    52  43  71 N3        29.97R
6HR MIN TEMP:  48; 6HR MAX TEMP:  56;

$$

AZZ020-021-025-026-031-011300-
SOUTHWEST ARIZONA

CITY           SKY/WX    TMP DP  RH WIND       PRES   REMARKS
YUMA           LGT RAIN  60  44  55 E7        29.90F
6HR MIN TEMP:  59; 6HR MAX TEMP:  62; 6HR PCP: TRACE;

$$

CAZ031-033-041-043-047-048-061-011300-
SOUTHERN CALIFORNIA

CITY           SKY/WX    TMP DP  RH WIND       PRES   REMARKS
DOWNTOWN L.A.  MOCLDY    53  47  79 CALM      29.91S
6HR MIN TEMP:  53; 6HR MAX TEMP:  55;

L.A. AIRPORT   RAIN      52  48  86 N3        29.92S FOG
6HR MIN TEMP:  51; 6HR MAX TEMP:  56; 6HR PCP:  0.01;

SAN DIEGO      LGT RAIN  58  50  75 E5        29.91F
6HR MIN TEMP:  58; 6HR MAX TEMP:  60; 6HR PCP: TRACE;

BURBANK        LGT RAIN  49  45  86 N3        29.90F
6HR MIN TEMP:  49; 6HR MAX TEMP:  52; 6HR PCP:  0.14;

ONTARIO        MOCLDY    49  46  90 NE6       29.91F
6HR MIN TEMP:  49; 6HR MAX TEMP:  52; 6HR PCP:  0.21;

RIVERSIDE      CLOUDY    50  47  89 N5        29.92F
6HR MIN TEMP:  50; 6HR MAX TEMP:  53; 6HR PCP:  0.03;

PALM SPRINGS   CLOUDY    55  41  59 S3        29.90F
6HR MIN TEMP:  55; 6HR MAX TEMP:  60;

EL CENTRO NAS  CLOUDY    61  42  49 W12       29.89S
6HR MIN TEMP:  58; 6HR MAX TEMP:  63;

IMPERIAL       CLOUDY    60  42  51 NW7       29.88F
6HR MIN TEMP:  58; 6HR MAX TEMP:  61;

BLYTHE         CLOUDY    58  42  55 S8        29.90S
6HR MIN TEMP:  58; 6HR MAX TEMP:  61;

NEEDLES        CLOUDY    60  34  37 SW5       29.88S
6HR MIN TEMP:  60; 6HR MAX TEMP:  64;

$$

NVZ020-UTZ003-011300-
SOUTHERN NEVADA-UTAH

CITY           SKY/WX    TMP DP  RH WIND       PRES   REMARKS
LAS VEGAS      MOCLDY    50  33  52 S5        29.87R
6HR MIN TEMP:  50; 6HR MAX TEMP:  55;

SALT LAKE CITY MOCLDY    33  31  92 CALM      30.01R
6HR MIN TEMP:  32; 6HR MAX TEMP:  35;

$$

NMZ009-TXZ055-011300-
NEW MEXICO-WEST TEXAS

CITY           SKY/WX    TMP DP  RH WIND       PRES   REMARKS
ALBUQUERQUE    CLOUDY    35  31  85 N5        30.05R WCI  31
6HR MIN TEMP:  33; 6HR MAX TEMP:  35; 6HR PCP: TRACE;

EL PASO        PTCLDY    47  30  51 S8        30.05R
6HR MIN TEMP:  46; 6HR MAX TEMP:  62;

$$


........................KEY........................
SKY/WX - SKY CONDITION/WEATHER
TMP    - TEMPERATURE IN FAHRENHEIT
DP     - DEW POINT IN FAHRENHEIT
RH     - RELATIVE HUMIDITY IN PERCENT
WIND   - DIRECTION AND SPEED IN MILES PER HOUR (MPH)
VRB    - VARIABLE WIND DIRECTION
PRES   - MEAN SEA LEVEL PRESSURE IN INCHES OF MERCURY
         F - FALLING PRESSURE   R - RISING PRESSURE
         S - STEADY PRESSURE
VSB    - VISIBILITY IN MILES
HX     - HEAT INDEX IN FAHRENHEIT
WCI    - WIND CHILL INDEX IN FAHRENHEIT
TC     - TEMPERATURE IN CELSIUS WHICH IS ALSO KNOWN AS
         TEMPERATURE IN CENTIGRADE
AFB    - AIR FORCE BASE
         LUKE AFB IS LUKE AIR FORCE BASE
         DAVIS-MONTHAN IS DAVIS-MONTHAN AIR FORCE BASE
NAS    - NAVAL AIR STATION
         EL CENTRO NAS IS EL CENTRO NAVAL AIR STATION
N/A    - NOT AVAILABLE


USA.gov is the U.S. government's official web portal to all federal, state and local government web resources and services.